KOXRKSDM

Guest
Details From KOXR - Oxnard
To KSDM - BROWN FLD MUNI
Flight Number -
Tags generated
Created
Modified
Stats Distance 148 nm / 275 km
Max Altitude 15,200 ft / 4,633 m
Waypoints 3
Social Downloads 0
Likes 0
Share VATSIM

Download

Looking for another format? Having issues loading an existing format? Contact us
Advertisement - Login to hide

Notes

Basic altitude profile: - Ascent Rate: 2500ft/min - Ascent Speed: 250kts - Cruise Altitude: 27000ft - Cruise Speed: 420kts - Descent Rate: 1500ft/min - Descent Speed: 250kts Options: - Use NATs: yes - Use PACOTS: yes - Use low airways: yes - Use high airways: yes

Route

KOXR INISH KSDM

ID Type Via Altitude Latitude Longitude Leg Dist Tot Dist Heading (true) Name
O KOXR APT - 0 ft / 0 m 34.20082˚ -119.20723˚ - 0 nm - Oxnard
INISH FIX - 15,200 ft / 4,633 m 33.75391˚ -118.54132˚ 42 nm 42 nm 129° / 129° -
O KSDM APT - 0 ft / 0 m 32.57192˚ -116.97991˚ 105 nm 148 nm 132° / 133° BROWN FLD MUNI

Altitude Profile

Advertisement - Login to hide

KOXR

Details ICAO KOXR (OXR)
Name Oxnard
Region United States
Timezone America/Los_Angeles (UTC-7.0)
Stats Elevation 43 ft / 13 m (AMSL)
Location 34.200819° -119.207233°
Runways 1
Magnetic Variation 12.172° E

METAR

KOXR 280251Z 25007KT 7SM OVC005 14/12 A2990 RMK AO2 SLP125 T01390117 55003

Decode

TAF

TAF AMD KOXR 280236Z 2803/2824 28013KT P6SM BKN005 FM280400 VRB03KT P6SM OVC005 FM280900 VRB03KT P6SM OVC007 FM281400 VRB03KT P6SM OVC010 FM281800 25005KT P6SM BKN015 FM282100 26010KT P6SM BKN015

Decode

Departure Runways

ID Width Length Bearing (true) Bearing (mag) Surface Threshold Offset Overrun Length
07 98 ft / 30 m 5,953 ft / 1,815 m 90.53° 78.36° Asphalt 0 ft / 0 m 0 ft / 0 m
25 98 ft / 30 m 5,953 ft / 1,815 m 270.54° 258.37° Asphalt 1,378 ft / 420 m 0 ft / 0 m

KSDM

Details ICAO KSDM (SDM)
Name BROWN FLD MUNI
Region United States
Timezone America/Los_Angeles (UTC-7.0)
Stats Elevation 526 ft / 160 m (AMSL)
Location 32.571917° -116.979915°
Runways 2
Magnetic Variation 11.412° E

METAR

KSDM 280253Z 28005KT 10SM CLR 16/12 A2994 RMK AO2 SLP135 T01560122 53006

Decode

TAF

Not found

Destination Runways

ID Width Length Bearing (true) Bearing (mag) Surface Threshold Offset Overrun Length
08L 151 ft / 46 m 7,957 ft / 2,425 m 95.59° 84.18° Asphalt 0 ft / 0 m 0 ft / 0 m
08R 75 ft / 23 m 3,158 ft / 963 m 95.70° 84.29° Asphalt 0 ft / 0 m 0 ft / 0 m
26L 75 ft / 23 m 3,158 ft / 963 m 275.70° 264.29° Asphalt 0 ft / 0 m 1,706 ft / 520 m
26R 151 ft / 46 m 7,957 ft / 2,425 m 275.61° 264.20° Asphalt 0 ft / 0 m 0 ft / 0 m

Popular Alternatives